YAMAL 601

Last updated on Mon Jun 22 2026 00:03:06 GMT+0000 (Coordinated Universal Time)

1 44307U 19031A 26172.54235209 .00000119 00000+0 00000+0 0 9999 2 44307 0.0134 63.0832 0002585 25.7905 65.1063 1.00271067 25976
UTC large
Height (km)
Speed (km/s)
/
Latitude / Longitude
Inclination (degrees)
Orbital Period (minutes)
Azimuth
Elevation
Range (km)
Doppler Factor

Next 0 passes for location: London (51.5072 / 0.1276)

No passes found over London.
YAMAL 601